Location: Godzisko
(49.9648°N, 19.4576°E)
Time: 08:07:12
(UTC+00:00)

Cosmos 1066 Rocket - Pass Details

Date: 20 April 2021
Orbit: 798 x 894 km, 81.2° (Epoch: 06 May)

Event Time Altitude Azimuth Distance (km) Brightness Sun altitude
Exits shadow 01:52:46 14° 188° (S) 2,298 6.0 -15.6°
Maximum altitude 01:57:56 85° 102° (ESE) 905 4.3 -15.0°
Drops below altitude 10° 02:03:49 10° 13° (NNE) 2,571 7.5 -14.2°
Sets 02:06:17 0° 13° (NNE) 3,508 8.3 -13.9°
